Location: Newark
(7.0858°N, 171.3717°E)
Time: 22:33:59
(UTC+00:00)

N. Korean satellite - Visible Passes

Search period start: 21 August 2019 00:00
Search period end: 31 August 2019 00:00
Orbit: 457 x 507 km, 97.2° (Epoch: 21 August)

Date Brightness Start Highest point End Pass type
(mag) Time Alt. Az. Time Alt. Az. Time Alt. Az.
21 Aug 8.3 17:53:10 10° NNE 17:56:23 34° E 17:59:35 10° SSE visible
22 Aug 9.7 17:29:28 10° ENE 17:31:15 13° E 17:33:02 10° SE visible
25 Aug 8.9 17:46:10 10° NE 17:49:07 26° E 17:52:03 10° SSE visible
26 Aug 10.2 17:23:41 10° E 17:23:59 10° E 17:24:16 10° ESE visible
28 Aug 7.3 18:03:34 10° NNE 18:06:58 55° E 18:10:19 10° S visible
29 Aug 9.4 17:39:14 10° NE 17:41:49 20° E 17:44:24 10° SSE visible
30 Aug 10.3 07:05:05 10° WSW 07:06:03 11° W 07:07:01 10° W visible
